Location: Eppenbrunn
(49.1158°N, 7.5601°E)
Time: 05:23:12
(UTC+00:00)

Cosmos-2242 - Pass Details

Date: 09 April 2020
Orbit: 590 x 618 km, 82.5° (Epoch: 29 May)

Event Time Altitude Azimuth Distance (km) Brightness Sun altitude
Exits shadow 21:45:26 32° 277° (W) 1,043 4.4 -28.4°
Maximum altitude 21:45:48 33° 288° (WNW) 1,032 4.5 -28.4°
Drops below altitude 10° 21:49:47 10° 353° (N) 1,980 6.5 -28.7°
Sets 21:52:13 0° 3° (N) 2,895 7.3 -28.9°
